GFSNIL_prec_cloud_138.txt.gz
Cloud_Cover
91 86 100 100 100 100 100 99 48 6 100 100 86 92 100 100 100 100 100 100 100 88
21 69 93 100 100 100 100 100 100 46 75 100 100 100 100 88 100 100 100 100 100 46
21 79 65 99 100 100 100 100 100 99 67 67 56 86 100 100 100 100 100 94 64 98
60 20 63 90 86 100 100 89 57 100 100 100 100 100 98 45 100 92 83 98 100 100
5 18 100 100 95 69 98 100 100 100 100 67 99 49 100 100 100 90 100 100 100 100
5 8 39 69 6 71 100 100 100 100 84 100 97 57 75 100 100 100 92 100 100 100
5 1 5 68 12 100 100 100 100 100 100 90 100 100 97 97 83 100 100 100 93 84
5 5 8 5 5 2 53 99 100 100 100 100 100 100 93 87 79 98 100 100 100 95
1 0 0 0 0 0 0 0 29 53 25 0 4 42 97 100 99 100 100 100 100 100
0 0 0 0 0 0 0 0 0 0 0 0 0 0 3 5 9 56 92 99 34 22
0 1 1 5 4 4 3 4 3 2 5 0 0 0 0 0 1 0 10 58 82 76
4 2 2 3 5 1 4 5 5 5 4 4 5 5 5 3 21 71 38 1 0 8
5 5 4 5 5 5 22 5 42 50 5 5 11 5 45 77 99 34 6 7 33 24
10 5 5 6 5 5 5 12 5 5 69 90 5 5 43 93 100 100 100 100 100 100

GFSNIL_prec_cloud_141.txt.gz
Cloud_Cover
70 98 100 100 100 100 100 100 100 100 75 45 36 38 87 100 100 100 100 100 100 100
38 66 100 97 100 100 100 100 100 100 100 77 76 99 100 100 100 100 100 100 100 100
7 16 27 92 84 100 100 100 94 68 97 100 97 81 100 100 100 100 100 100 100 100
5 4 94 34 48 100 85 100 100 85 100 100 88 60 100 100 34 100 98 100 100 100
5 2 5 5 4 96 100 100 100 100 100 100 74 100 84 65 100 100 100 100 100 100
0 0 4 2 5 87 100 100 100 100 100 100 98 100 100 100 100 96 97 88 98 82
0 0 0 0 0 0 53 100 100 100 100 100 100 100 99 66 68 68 78 100 100 96
0 0 0 0 0 0 0 83 93 78 100 100 100 16 5 96 42 78 100 100 100 100
0 0 0 0 0 0 0 0 3 0 0 0 0 0 2 5 5 5 5 5 5 49
3 4 1 0 0 0 3 1 1 5 3 0 3 6 5 5 5 2 5 5 0 2
5 5 5 5 5 5 5 5 5 5 5 5 64 24 3 4 2 3 5 5 35 63
5 4 5 5 5 5 5 4 5 32 49 5 5 41 96 23 5 4 4 4 5 21
12 5 5 5 5 5 5 5 5 5 100 88 7 13 75 26 76 5 5 5 53 92
52 34 74 22 14 11 5 5 12 78 78 100 98 96 100 100 73 64 84 78 72 85

GFSNIL_prec_cloud_147.txt.gz
Cloud_Cover
0 3 42 94 67 100 98 53 100 100 90 100 100 100 100 100 100 100 100 100 100 66
0 0 0 8 6 35 82 96 83 100 56 100 100 100 100 82 93 100 100 100 100 100
0 0 0 0 1 2 23 99 85 100 100 87 73 100 100 56 100 99 97 56 76 68
0 0 0 0 0 0 11 70 89 100 97 30 99 62 44 87 51 17 19 53 42 55
0 0 0 0 0 0 0 33 100 100 93 23 21 12 8 12 6 5 79 41 42 31
0 0 0 0 0 0 0 0 14 51 0 4 7 3 1 0 8 20 33 20 6 42
0 0 0 0 0 0 0 0 0 0 3 5 5 88 11 69 6 5 8 11 20 91
0 0 4 4 4 5 5 4 5 4 4 2 4 66 10 95 48 38 8 5 6 10
4 5 5 14 5 25 10 2 5 5 5 5 5 5 5 5 5 17 5 5 5 5
5 8 8 5 5 5 5 5 5 5 5 14 5 5 5 5 5 6 5 5 25 5
72 10 49 61 37 5 5 42 58 23 6 7 5 5 5 5 11 46 72 62 6 5
5 39 95 100 100 100 33 25 95 100 100 75 99 59 5 23 47 43 85 94 98 84
46 89 80 69 100 100 100 97 94 100 100 100 87 19 100 19 36 38 71 100 100 100
5 16 40 38 95 100 100 100 100 100 100 100 100 100 100 53 22 48 100 100 100 100

GFSNIL_prec_cloud_150.txt.gz
Cloud_Cover
0 0 0 0 0 0 0 17 98 100 100 100 100 100 100 100 100 61 99 98 100 100
0 0 0 0 0 0 0 0 71 100 100 100 72 100 100 100 2 68 100 98 99 52
0 0 0 0 0 0 0 0 44 77 100 97 0 66 100 100 98 65 66 31 98 100
0 0 0 0 0 0 0 0 0 35 100 29 52 58 0 5 62 0 2 17 24 24
0 0 0 0 0 0 0 0 0 0 59 0 5 19 78 5 95 5 5 3 3 10
0 0 0 0 0 0 0 0 0 0 0 0 0 0 14 4 84 8 8 5 5 5
0 0 0 0 0 0 0 0 0 0 0 4 5 5 5 5 5 5 5 8 5 5
0 1 5 5 5 0 1 0 0 0 1 4 15 30 5 5 5 5 5 5 31 13
5 0 5 3 5 5 5 5 0 5 5 5 6 99 35 5 5 5 6 5 5 63
0 4 1 5 5 45 98 99 63 90 100 100 100 69 9 84 70 99 43 10 5 90
13 2 0 4 14 100 100 100 100 100 94 100 100 100 100 91 81 100 99 46 24 100
6 12 55 64 75 100 100 86 69 100 100 75 100 59 58 100 98 30 35 54 67 63
44 35 95 100 100 5 5 32 96 100 100 100 63 100 100 96 98 6 67 22 99 100
100 92 53 61 30 32 27 72 100 100 100 100 86 100 100 87 100 87 96 100 100 100

GFSNIL_prec_cloud_153.txt.gz
Cloud_Cover
0 0 0 0 0 0 0 0 0 20 100 100 100 100 100 100 100 61 71 100 93 100
0 0 0 0 0 0 0 0 0 0 100 100 76 82 100 100 100 73 38 0 67 41
0 0 0 0 0 0 0 0 0 0 73 100 27 99 100 96 49 41 0 1 0 5
0 0 0 0 0 0 0 0 0 0 0 8 0 20 22 5 9 8 4 4 5 50
0 0 0 0 0 0 0 0 0 0 0 0 0 1 0 0 0 3 5 5 7 5
0 0 0 0 0 0 0 0 0 0 0 0 5 5 4 5 5 4 5 5 5 5
0 0 0 0 0 0 0 0 0 0 0 0 2 9 41 5 3 6 7 7 7 19
0 0 0 0 0 0 0 0 0 0 0 1 4 4 5 12 5 33 40 18 100 10
5 5 5 3 0 0 1 5 5 5 5 5 99 100 100 85 24 31 100 34 52 5
37 5 5 5 5 5 6 5 84 100 100 94 99 59 70 13 36 48 7 5 5 6
43 6 15 24 73 81 78 100 92 40 34 65 6 28 10 47 64 96 98 76 65 9
100 100 98 85 81 42 27 96 99 85 100 31 5 14 5 86 100 92 15 96 98 10
100 100 100 100 100 100 100 100 100 100 73 65 56 8 99 100 86 100 66 100 100 100
100 100 100 100 100 100 100 100 100 100 100 100 100 65 84 100 100 100 100 100 100 100

GFSNIL_prec_cloud_156.txt.gz
Cloud_Cover
0 0 0 0 0 0 0 0 0 0 0 99 100 100 100 100 100 100 63 40 97 100
0 0 0 0 0 0 0 0 0 0 0 84 100 90 100 100 100 100 100 22 1 5
0 0 0 0 0 0 0 0 0 0 0 0 73 100 100 98 68 43 2 0 5 4
0 0 0 0 0 0 0 0 0 0 0 0 0 0 2 1 0 0 0 0 0 0
0 0 0 0 0 0 0 0 0 0 0 0 0 0 0 0 0 0 0 0 21 6
0 0 0 0 0 0 0 0 0 0 0 0 0 0 0 0 0 0 4 4 0 5
0 0 0 0 0 0 0 0 0 0 0 0 0 0 0 0 0 0 0 2 5 5
0 1 2 2 1 2 4 1 0 0 0 1 0 4 7 8 8 3 3 5 16 53
9 5 5 5 5 5 21 52 21 5 5 68 99 100 100 57 5 5 7 34 12 5
25 59 5 5 45 67 65 95 79 50 13 64 26 5 24 51 72 71 18 20 85 37
100 94 93 100 46 93 100 74 31 54 76 96 100 100 100 95 100 78 64 54 91 100
100 100 100 100 100 100 100 100 100 100 100 90 71 81 86 96 100 100 100 82 20 58
57 100 89 65 99 100 100 100 100 100 100 100 100 100 100 100 100 100 100 100 100 100
100 100 100 100 98 88 100 100 100 100 100 100 100 100 100 100 100 100 100 100 100 100

GFSNIL_prec_cloud_159.txt.gz
Cloud_Cover
0 5 3 0 0 0 0 0 0 0 0 0 10 73 100 100 100 100 100 100 46 86
3 0 0 0 0 0 0 0 0 0 0 0 0 66 32 75 100 100 100 98 12 14
0 0 0 0 0 0 0 0 0 0 0 0 0 0 0 0 60 44 6 0 1 0
0 0 0 0 0 0 0 0 0 0 0 0 0 0 0 0 0 0 0 0 0 0
0 0 0 0 0 0 0 0 0 0 0 0 0 0 0 0 0 0 0 0 0 0
0 0 0 0 0 0 0 0 0 0 0 0 0 0 0 0 0 0 0 0 0 1
1 0 0 1 0 0 1 2 3 1 0 0 2 4 1 2 5 5 5 5 5 5
5 5 2 0 5 5 5 5 10 5 5 5 5 6 61 66 25 28 6 5 9 10
1 5 3 5 5 7 64 99 85 19 6 5 6 52 99 100 84 100 100 100 100 100
55 77 42 19 15 59 97 100 93 100 84 100 100 62 52 58 93 98 100 96 88 24
24 100 100 100 100 100 100 100 94 33 76 87 100 69 37 54 100 100 93 99 97 100
19 82 88 100 99 84 99 95 97 28 37 34 91 77 98 99 97 100 100 100 100 100
100 100 16 34 78 99 76 100 100 100 100 100 98 76 100 100 100 100 100 100 100 100
100 98 78 97 100 95 100 94 99 97 100 100 100 100 100 78 99 80 100 100 100 100